Regional Weather Roundup
Issued by NWS

Home | Current Version | Previous Version | Graphics & Text | Print | Product List | Glossary On
Versions: 1 2 3 4 5 6 7 8 9 10 11 12 13 14 15 16 17 18 19 20 21 22 23 24 25 26 27 28 29 30 31 32 33 34 35 36 37 38 39 40 41 42 43 44 45 46 47 48 49 50
513
ASUS43 KLMK 230410
RWRKY
NATIONAL WEATHER SERVICE LOUISVILLE KY
1100 PM EST WED NOV 22 2017

NOTE "FAIR" INDICATES FEW OR NO CLOUDS BELOW 12,000 FEET
WITH NO SIGNIFICANT WEATHER AND/OR OBSTRUCTIONS TO VISIBILITY.

KYZ001>023-026-027-061>063-070>075-230500-
WESTERN AND SOUTH CENTRAL KENTUCKY

CITY           SKY/WX    TMP DP  RH WIND       PRES   REMARKS
PADUCAH        CLOUDY    27  20  75 CALM      30.26F
HENDERSON      CLOUDY    25  23  92 NW3       30.27S
OWENSBORO      CLOUDY    27  23  85 CALM      30.26F
HOPKINSVILLE   CLOUDY    32  22  65 CALM      30.25F
BOWLING GREEN  CLOUDY    32  24  72 CALM      30.26F
GLASGOW        CLEAR     27  24  88 CALM      30.25S
$$

KYZ024-025-028>034-038-045-046-053-230500-
NORTH CENTRAL KENTUCKY

CITY           SKY/WX    TMP DP  RH WIND       PRES   REMARKS
LOUISVILLE/SDF CLEAR     34  24  67 CALM      30.25F
LOUISVILLE/LOU CLEAR     30  25  81 CALM      30.26S
FORT KNOX      CLOUDY    28  21  77 CALM      30.23F
$$

KYZ035>037-039>044-047>052-055>060-089>105-230500-
NORTHEAST KENTUCKY

CITY           SKY/WX    TMP DP  RH WIND       PRES   REMARKS
LEXINGTON      CLOUDY    29  21  72 CALM      30.24S
COVINGTON      CLOUDY    31  24  75 E3        30.23F
FRANKFORT      CLOUDY    27  20  75 CALM      30.23F
$$

KYZ054-064>069-076>088-106>120-230500-
SOUTHEAST KENTUCKY

CITY           SKY/WX    TMP DP  RH WIND       PRES   REMARKS
JACKSON        CLEAR     30  22  72 NE3       30.21F
LONDON         CLEAR     30  23  75 NE5       30.21F WCI  25
SOMERSET       CLOUDY    30  23  74 N5        30.24S WCI  25
MIDDLESBORO    CLEAR     30  27  89 CALM      30.21S
MONTICELLO     CLEAR     23  21  92 NW3       30.25S
$$





USA.gov is the U.S. government's official web portal to all federal, state and local government web resources and services.